OBJECT D, 61241

Orbit data source: Space-Track

You're viewing an Uncataloged Satellite

Recently launched and/or uncataloged satellites may have evolving metadata. Metadata may include but not limited to: Owner, Maufacturer, Bus, Motor, and Mission.

OBJECT D, 61241 is a satellite owned by Yunyao yuhang (CN) in SSO that was launched on Tue, 24 Sep 2024 UTC via a LIJIAN-1 launch vehicle from the Jiuquan Satellite Launch Center, China (JSC). Unknown objects in Earth's orbit typically refer to objects detected orbiting the Earth but have not yet been identified or cataloged. These objects could be anything from previously untracked satellites, spent rocket stages, debris from satellite collisions, or even natural meteoroids temporarily captured by Earth's gravity.

Loading next visibility...
Identifier
61241, 2024-174D
Orbit
SSO
Last TLE update
7 hours ago
Origin
Flag of CNYYAO (CN / PRC)
Manufacturer
Changguang WJ
Mission
Operational Commercial Weather
Bus & Motor
YY-1, Unknown motor
Mass
~50 kg wet, ~50 kg dry
Launch date (UTC)
2024-09-24 (9 months ago)
Launch vehicle
LIJIAN-1
Launch site
Jiuquan Satellite Launch Center, China (JSC)
Object type
Unknown
Shape & HBR
Box + 1 Pan, 5 m
Radar Cross Section
5.339 m², Medium (>0.1 m² and < 1m²)

Expand to show TLE details & history

TLE from 7 hours ago
0 OBJECT D
1 61241U 24174D   25182.09955658  .00005504  00000-0  23647-3 0  9996
2 61241  97.4451 189.8335 0014568  35.6898 324.5310 15.22997557 42361
Epoch: 2025-07-01T02:23Z
TLE epoch observation values (Epoch: 2025-07-01T02:23:21.688Z)
Latitude
0.00001°
Longitude
-125.40674°
Altitude
491.745 km
Speed
7.624 km/s
True Right ascension
12h 39m 20s
True Declination
0° 00' 00"
Sunlit
Object was in daylight at epoch
Visualization orbit readout
Latitude
75.65341°
Longitude
85.41084°
Altitude
505.887 km
Speed
7.62 km/s
Apparent Right ascension
07h 29m 23s
Apparent Declination
26° 32' 21"
Sunlit
Object is in daylight
Visualization observer readout
Local Sidereal Time
20:46:50
Azimuth
18.544° NNE
Elevation
-21.14°
Doppler factor
1
Orbital elements
Apogee altitude
503.779 km
Perigee altitude
483.757 km
Semi-major axis
6,871.905 km
Eccentricity
0.00146
Inclination
97.4451°
RAAN
189.8335°
Arg. of periapsis
35.6898°
True anomaly
Unknown
Mean anomaly
324.531°
Eccentric anomaly
Unknown
Mean motion
3.81002 °/min
Orbital period
94.49 mins
BSTAR
0.00023647
Loading maneuver chart data...
Loading SW <> Apogee altitude chart data...
Loading historical data...
Loading historical data...
Loading historical data...
Loading historical data...
Loading historical data...
Loading historical data...
Loading historical data...

OBJECT D Visibility forecast

Observer location: undefined°, undefined°

Span
Click to sort rows by Start time (UTC) header in descending order
Start Az.
Max El. time (UTC)
Max El. Az.
Max El.
End time (UTC)
End Az.
5 mins2025-07-01 13:59:36.625Z340.366° N2025-07-01 14:01:36.625Z294.026° NW26.803°2025-07-01 14:04:36.625Z228.872° WSW
5 mins2025-07-02 00:36:36.625Z169.307° S2025-07-02 00:38:36.625Z328.95° NNW44.541°2025-07-02 00:41:36.625Z347.13° N
|